TimeEDT,TemperatureF,Dew PointF,Humidity,Sea Level PressureIn,VisibilityMPH,Wind Direction,Wind SpeedMPH,Gust SpeedMPH,PrecipitationIn,Events,Conditions,WindDirDegrees,DateUTC
12:56 AM,75.9,72.0,87,29.70,10.0,South,4.6,-,0.02,,Scattered Clouds,170,2013-06-29 04:56:00
1:56 AM,79.0,75.9,90,29.70,8.0,SSW,10.4,-,0.02,,Overcast,200,2013-06-29 05:56:00
2:56 AM,80.1,77.0,90,29.68,9.0,SSW,15.0,-,N/A,,Overcast,210,2013-06-29 06:56:00
3:56 AM,80.1,77.0,90,29.68,9.0,SSW,18.4,26.5,N/A,,Overcast,210,2013-06-29 07:56:00
4:56 AM,81.0,75.9,85,29.69,9.0,SSW,19.6,26.5,0.01,,Overcast,210,2013-06-29 08:56:00
5:56 AM,81.0,75.9,85,29.70,9.0,SSW,21.9,32.2,N/A,,Overcast,210,2013-06-29 09:56:00
6:56 AM,81.0,75.0,82,29.70,8.0,SW,18.4,26.5,N/A,,Scattered Clouds,220,2013-06-29 10:56:00
7:56 AM,81.0,75.0,82,29.70,8.0,SSW,17.3,31.1,N/A,,Partly Cloudy,210,2013-06-29 11:56:00
8:56 AM,82.9,75.9,79,29.71,9.0,SW,19.6,29.9,N/A,,Scattered Clouds,220,2013-06-29 12:56:00
9:56 AM,82.9,75.0,77,29.73,9.0,SSW,16.1,29.9,N/A,,Mostly Cloudy,210,2013-06-29 13:56:00
10:56 AM,82.9,73.9,74,29.72,10.0,SW,20.7,27.6,0.00,,Mostly Cloudy,220,2013-06-29 14:56:00
11:11 AM,82.4,73.4,74,29.71,10.0,SSW,17.3,26.5,N/A,,Mostly Cloudy,210,2013-06-29 15:11:00
11:56 AM,84.9,75.0,72,29.73,10.0,SSW,18.4,24.2,N/A,,Scattered Clouds,210,2013-06-29 15:56:00
12:07 PM,84.2,75.2,74,29.71,10.0,SSW,18.4,28.8,N/A,,Mostly Cloudy,200,2013-06-29 16:07:00
12:26 PM,82.4,73.4,74,29.72,10.0,SSW,19.6,27.6,N/A,,Scattered Clouds,210,2013-06-29 16:26:00
12:56 PM,84.0,73.9,72,29.73,10.0,SSW,21.9,28.8,N/A,,Scattered Clouds,210,2013-06-29 16:56:00
1:07 PM,82.4,73.4,74,29.72,10.0,SSW,23.0,28.8,N/A,,Mostly Cloudy,210,2013-06-29 17:07:00
1:21 PM,82.4,73.4,74,29.72,10.0,SSW,18.4,27.6,N/A,,Partly Cloudy,210,2013-06-29 17:21:00
1:56 PM,82.0,73.9,76,29.74,10.0,SSW,15.0,23.0,0.00,,Scattered Clouds,210,2013-06-29 17:56:00
2:56 PM,82.9,73.0,72,29.74,10.0,SSW,19.6,28.8,0.00,,Partly Cloudy,210,2013-06-29 18:56:00
3:56 PM,82.9,75.9,79,29.74,8.0,SSW,21.9,33.4,N/A,,Scattered Clouds,200,2013-06-29 19:56:00
4:26 PM,82.4,75.2,79,29.73,8.0,SSW,29.9,35.7,N/A,,Mostly Cloudy,200,2013-06-29 20:26:00
4:56 PM,82.9,75.0,77,29.74,9.0,SSW,23.0,38.0,N/A,,Scattered Clouds,200,2013-06-29 20:56:00
5:20 PM,82.4,73.4,74,29.73,9.0,SSW,19.6,31.1,N/A,,Mostly Cloudy,210,2013-06-29 21:20:00
5:37 PM,80.6,73.4,79,29.73,9.0,SSW,21.9,33.4,N/A,,Scattered Clouds,210,2013-06-29 21:37:00
5:56 PM,82.0,72.0,71,29.75,10.0,SSW,18.4,28.8,N/A,,Partly Cloudy,210,2013-06-29 21:56:00
6:56 PM,81.0,73.0,77,29.75,9.0,SSW,18.4,26.5,N/A,,Clear,210,2013-06-29 22:56:00
7:56 PM,80.1,73.9,81,29.76,8.0,SSW,19.6,26.5,N/A,,Partly Cloudy,210,2013-06-29 23:56:00
8:56 PM,79.0,73.9,84,29.79,9.0,SSW,13.8,-,N/A,,Clear,200,2013-06-30 00:56:00
9:56 PM,79.0,73.9,84,29.81,9.0,SSW,9.2,-,N/A,,Clear,200,2013-06-30 01:56:00
10:56 PM,79.0,73.0,82,29.82,10.0,South,9.2,-,N/A,,Clear,180,2013-06-30 02:56:00
11:36 PM,80.6,73.4,79,29.81,10.0,SSW,13.8,-,N/A,,Overcast,200,2013-06-30 03:36:00
11:56 PM,80.1,73.9,81,29.82,10.0,SSW,17.3,27.6,N/A,,Overcast,200,2013-06-30 03:56:00